Regional Weather Roundup
Issued by NWS

Home | Current Version | Previous Version | Graphics & Text | Print | Product List | Glossary On
Versions: 1 2 3 4 5 6 7 8 9 10 11 12 13 14 15 16 17 18 19 20 21 22 23 24 25 26 27 28 29 30 31 32 33 34 35 36 37 38 39 40 41 42 43 44 45 46 47 48 49 50
000
ASUS43 KLSX 311710
RWRMO

WEATHER SUMMARY FOR MISSOURI
NATIONAL WEATHER SERVICE SPRINGFIELD MO
1200 PM CDT WED AUG 31 2016

NOTE: "FAIR" INDICATES FEW OR NO CLOUDS BELOW 12,000 FEET WITH NO
       SIGNIFICANT WEATHER AND/OR OBSTRUCTIONS TO VISIBILITY.
       CURRENT SKY AND/OR WEATHER CONDITIONS ARE NOT AVAILABLE FOR
       CHILLICOTHE AND FARMINGTON.

MOZ001>031-035>038-043-044-053-054-311800-
...NORTHERN AND WESTERN MISSOURI...

CITY           SKY/WX    TMP DP  RH WIND       PRES   REMARKS
KANSAS CTY INT LGT RAIN  75  69  81 NE7       30.15S
KANSAS C DTWN  CLOUDY    78  70  76 N5        30.13S
LEE`S SUMMIT   PTSUNNY   76  72  87 NE7       30.14F
ST JOSEPH      MOSUNNY   77  68  73 NE3       30.15F
CHILLICOTHE      N/A     76  70  82 N5        30.14F
KIRKSVILLE     CLOUDY    74  68  81 N7        30.14S

$$
MOZ066>068-077>081-088>096-101>105-311800-
...SOUTHWEST MISSOURI...

CITY           SKY/WX    TMP DP  RH WIND       PRES   REMARKS
SPRINGFIELD    TSTM      70  67  90 NW9       30.13R
JOPLIN         MOSUNNY   80  73  79 CALM      30.10F
BRANSON        CLOUDY    77  73  88 CALM      30.11F

$$
MOZ032>034-039>042-045>050-055>058-069>072-311800-
...CENTRAL MISSOURI...

CITY           SKY/WX    TMP DP  RH WIND       PRES   REMARKS
COLUMBIA       RAIN      74  73  97 NW10      30.11S FOG
JEFFERSON CITY LGT RAIN  76  73  91 NW5       30.10S
ROLLA          PTSUNNY   77  71  82 N3        30.10F
SEDALIA        PTSUNNY   77  70  79 NE6       30.13F
WHITEMAN AFB   CLOUDY    75  75 100 N8        30.11S
OSAGE BEACH    CLOUDY    78  72  81 N6        30.11F

$$
MOZ051-052-059>065-311800-
...EAST CENTRAL MISSOURI...

CITY           SKY/WX    TMP DP  RH WIND       PRES   REMARKS
ST LOUIS INTL  PTSUNNY   85  72  65 VRB6      30.07F HX  91
SPIRIT OF STL  PTSUNNY   81  75  82 CALM      30.06F
ST CHARLES     PTSUNNY   80  74  81 W7        30.05F

$$
MOZ072>076-082>087-097>100-106>115-311800-
...SOUTH CENTRAL AND SOUTHEAST MISSOURI...

CITY           SKY/WX    TMP DP  RH WIND       PRES   REMARKS
CAPE GIRARDEAU NOT AVBL
FARMINGTON     MOSUNNY   81  70  69 NW6       30.08F
POPLAR BLUFF   SUNNY     87  71  58 NE5       30.02F HX  93
WEST PLAINS    PTSUNNY   79  68  69 N9        30.12S

$$




USA.gov is the U.S. government's official web portal to all federal, state and local government web resources and services.